TimePST,TemperatureF,Dew PointF,Humidity,Sea Level PressureIn,VisibilityMPH,Wind Direction,Wind SpeedMPH,Gust SpeedMPH,PrecipitationIn,Events,Conditions,WindDirDegrees,DateUTC
12:52 AM,3.9,1.0,88,30.58,-9999.0,SE,5.8,-,N/A,,Unknown,130,2013-01-03 08:52:00
1:52 AM,5.0,1.9,87,30.58,-9999.0,Calm,Calm,-,N/A,,Unknown,0,2013-01-03 09:52:00
2:52 AM,5.0,1.9,87,30.58,-9999.0,Calm,Calm,-,N/A,,Unknown,0,2013-01-03 10:52:00
3:52 AM,5.0,1.9,87,30.56,-9999.0,Calm,Calm,-,N/A,,Unknown,0,2013-01-03 11:52:00
4:52 AM,5.0,1.9,87,30.58,-9999.0,SSW,4.6,-,N/A,,Unknown,210,2013-01-03 12:52:00
5:52 AM,5.0,3.0,92,30.60,-9999.0,Calm,Calm,-,N/A,,Unknown,0,2013-01-03 13:52:00
6:52 AM,5.0,1.9,87,30.59,-9999.0,North,3.5,-,N/A,,Unknown,350,2013-01-03 14:52:00
7:52 AM,5.0,1.0,84,30.62,-9999.0,Calm,Calm,-,N/A,,Unknown,0,2013-01-03 15:52:00
8:52 AM,5.0,1.9,87,30.63,-9999.0,Calm,Calm,-,N/A,,Unknown,0,2013-01-03 16:52:00
9:52 AM,5.0,3.0,92,30.65,-9999.0,Calm,Calm,-,N/A,,Unknown,0,2013-01-03 17:52:00
10:52 AM,5.0,3.0,92,30.60,-9999.0,SE,3.5,-,N/A,,Unknown,130,2013-01-03 18:52:00
11:52 AM,7.0,3.0,84,30.56,-9999.0,Calm,Calm,-,N/A,,Unknown,0,2013-01-03 19:52:00
12:52 PM,7.0,1.9,80,30.55,-9999.0,Calm,Calm,-,N/A,,Unknown,0,2013-01-03 20:52:00
1:52 PM,8.1,3.0,80,30.54,-9999.0,SSE,3.5,-,N/A,,Unknown,150,2013-01-03 21:52:00
2:52 PM,7.0,1.0,77,30.54,-9999.0,SE,5.8,-,N/A,,Unknown,130,2013-01-03 22:52:00
3:52 PM,6.1,-0.0,76,30.55,-9999.0,ENE,5.8,-,N/A,,Unknown,60,2013-01-03 23:52:00
4:52 PM,-0.0,-4.0,83,30.55,-9999.0,ENE,8.1,-,N/A,,Unknown,60,2013-01-04 00:52:00
5:52 PM,-6.0,-9.9,83,30.60,-9999.0,Calm,Calm,-,N/A,,Unknown,0,2013-01-04 01:52:00
6:52 PM,-8.0,-11.9,83,30.61,-9999.0,South,8.1,-,N/A,,Unknown,190,2013-01-04 02:52:00
7:52 PM,-6.0,-9.9,83,30.61,-9999.0,Calm,Calm,-,N/A,,Unknown,0,2013-01-04 03:52:00
8:52 PM,-9.0,-14.1,79,30.63,-9999.0,South,3.5,-,N/A,,Unknown,170,2013-01-04 04:52:00
9:52 PM,-8.0,-13.0,79,30.64,-9999.0,Calm,Calm,-,N/A,,Unknown,0,2013-01-04 05:52:00
10:52 PM,-7.1,-11.0,83,30.64,-9999.0,Calm,Calm,-,N/A,,Unknown,0,2013-01-04 06:52:00
11:52 PM,-9.0,-15.0,75,30.63,-9999.0,South,5.8,-,N/A,,Unknown,170,2013-01-04 07:52:00